Wetbulb
32.57 32.87 32.41 32.76 34.47 35.89 37.43 37.36 36.73 39.72 42.58 45.43 44.53 42.55 43.34 44.13 45.38 46.75 47.45 48.11 49.09 50.27 51.53 52.77 54.54 56.08 57.76
29.66 30.85 31.28 32.22 32.79 33.26 35.47 37.30 34.85 37.59 41.82 42.88 40.70 41.71 42.43 43.00 43.71 44.73 45.54 46.30 46.92 48.02 49.02 50.00 51.28 53.28 55.56
28.45 30.67 30.85 31.20 30.95 31.39 32.14 32.04 34.05 36.91 40.12 38.21 39.61 40.55 41.25 42.08 42.98 43.66 43.73 44.19 45.63 46.80 47.51 48.13 48.87 50.13 52.94
28.54 28.52 28.63 30.29 29.77 29.22 28.53 30.23 30.23 34.17 35.02 35.34 37.30 38.46 39.76 41.05 41.18 41.21 41.30 41.48 44.67 45.69 46.05 47.09 47.20 47.82 49.47
27.13 27.27 26.77 26.72 27.18 28.40 27.45 28.35 29.10 30.85 30.32 30.49 31.97 32.75 34.09 37.70 38.33 38.91 40.66 44.25 44.47 43.66 43.61 45.79 46.69 46.97 48.05
25.95 26.18 25.81 26.37 27.53 27.23 27.13 26.25 24.05 29.90 29.02 28.60 30.43 29.77 32.09 34.11 36.42 38.28 42.05 41.59 40.83 40.53 42.43 43.91 44.37 44.85 46.32
27.11 26.65 25.78 26.85 27.01 27.07 27.45 26.81 26.04 29.20 28.51 24.89 27.90 28.50 31.68 31.69 35.17 39.20 39.66 38.84 38.43 39.35 40.65 40.20 41.42 42.60 44.77
29.92 29.35 28.21 28.31 28.41 29.16 28.50 28.15 28.25 28.81 28.35 20.63 27.31 26.86 28.75 28.90 34.07 38.78 37.50 36.80 36.95 38.38 38.75 38.37 40.13 42.07 43.56
35.23 35.01 35.15 34.98 34.07 29.41 27.12 25.87 24.21 23.74 26.87 22.25 24.74 25.02 26.42 25.81 29.52 34.41 34.58 35.18 35.85 37.45 36.09 37.35 38.73 40.08 40.48
28.31 28.84 30.42 29.81 33.34 29.45 28.03 24.64 22.02 18.59 26.59 24.03 22.82 22.17 20.56 24.71 27.14 28.44 29.35 32.70 33.03 33.50 35.45 36.96 37.76 37.47 37.65
27.15 27.04 27.54 27.66 27.85 28.32 28.78 27.56 22.92 21.99 26.55 22.96 15.78 21.21 17.76 20.88 24.86 27.30 26.50 26.28 26.80 29.44 33.99 35.07 36.61 34.03 32.80
25.07 24.74 25.26 26.08 27.22 28.03 28.37 27.80 27.89 27.12 28.14 26.56 14.77 16.09 14.55 21.61 19.95 22.85 24.20 25.41 27.23 27.89 29.73 30.37 31.76 35.01 37.35
24.79 25.25 25.96 26.72 26.71 26.06 26.61 26.57 26.26 26.48 27.65 26.41 20.68 20.73 19.30 13.40 16.45 19.69 21.79 23.45 25.39 25.10 24.02 25.99 27.79 31.73 33.07
24.58 25.29 25.54 24.85 24.94 25.64 24.15 24.14 22.66 21.40 25.78 24.80 24.77 18.95 10.10 14.69 17.91 17.78 20.66 17.79 21.88 22.85 25.82 28.19 30.83 31.77 33.74
23.64 23.60 24.43 25.46 25.76 25.12 24.24 22.53 18.86 16.20 15.43 19.12 21.48 18.52 16.73 14.86 14.89 16.94 18.30 19.07 22.71 23.12 22.82 24.43 25.10 27.55 29.02
24.16 24.15 23.54 23.60 23.48 23.65 23.79 20.22 18.33 18.58 14.28 10.36 9.42 7.16 10.00 15.96 21.24 16.85 17.24 16.59 18.42 22.69 21.04 19.45 19.81 23.02 26.68
24.81 23.11 23.61 23.57 23.73 22.42 22.55 22.12 20.40 18.94 13.22 7.67 4.19 2.91 8.62 8.05 11.89 23.38 17.12 12.48 16.96 17.23 19.28 18.52 18.24 22.22 24.50
MSLP
1031.92 1031.47 1031.24 1030.93 1030.41 1030.04 1029.57 1029.24 1028.94 1028.51 1028.02 1027.49 1027.33 1026.97 1026.54 1026.04 1025.51 1025.04 1024.61 1024.12 1023.58 1022.97 1022.37 1021.61 1020.82 1020.19 1019.55
1032.09 1031.59 1031.27 1030.87 1030.54 1030.23 1029.83 1029.49 1029.19 1028.65 1028.14 1027.86 1027.51 1027.01 1026.55 1026.09 1025.66 1025.18 1024.67 1024.23 1023.68 1023.08 1022.45 1021.83 1021.09 1020.30 1019.52
1032.37 1031.86 1031.38 1030.99 1030.67 1030.40 1030.03 1029.81 1029.18 1028.77 1028.37 1028.05 1027.62 1027.19 1026.61 1026.11 1025.59 1025.10 1024.62 1024.10 1023.50 1022.81 1022.30 1021.81 1021.35 1020.68 1019.82
1032.43 1032.20 1031.82 1031.18 1030.88 1030.59 1029.93 1029.86 1029.35 1028.87 1028.74 1028.43 1027.88 1027.42 1026.73 1026.25 1025.78 1025.32 1024.83 1024.22 1023.67 1023.16 1022.58 1021.95 1021.38 1020.72 1020.10
1032.54 1032.35 1032.00 1031.71 1031.43 1031.20 1030.75 1030.12 1029.34 1029.10 1028.62 1028.24 1027.80 1027.50 1027.07 1026.55 1025.96 1025.42 1024.88 1024.12 1023.78 1023.49 1022.95 1022.18 1021.44 1020.82 1020.15
1032.31 1032.27 1032.04 1031.85 1031.60 1031.51 1031.31 1030.91 1030.47 1029.48 1029.05 1027.88 1027.69 1027.32 1026.94 1026.56 1025.93 1025.36 1024.85 1024.60 1024.29 1023.79 1023.14 1022.38 1021.69 1020.87 1020.05
1031.85 1031.98 1031.99 1031.75 1031.68 1031.38 1031.43 1031.46 1031.16 1030.00 1029.52 1028.47 1027.77 1027.45 1026.88 1026.49 1025.84 1025.35 1024.86 1024.49 1024.23 1023.68 1023.18 1022.56 1021.87 1021.00 1019.94
1031.19 1031.26 1031.33 1031.24 1031.31 1031.13 1031.07 1030.93 1030.70 1030.24 1030.03 1029.35 1028.23 1027.40 1026.66 1026.30 1025.72 1025.38 1025.06 1024.66 1024.24 1023.69 1023.09 1022.43 1021.77 1020.99 1020.01
1030.55 1030.55 1030.43 1030.34 1030.44 1030.77 1030.81 1030.82 1030.51 1030.23 1030.07 1030.06 1029.18 1028.19 1026.79 1026.07 1025.61 1025.59 1025.47 1025.21 1024.71 1023.88 1023.38 1022.31 1021.68 1020.97 1020.08
1030.57 1030.50 1030.54 1030.67 1030.44 1030.58 1030.63 1030.74 1030.75 1030.48 1030.10 1030.27 1030.02 1029.77 1028.49 1026.41 1025.92 1025.67 1025.37 1024.87 1024.53 1024.32 1023.39 1022.40 1021.88 1021.01 1020.21
1030.00 1030.18 1030.27 1030.29 1030.27 1030.17 1030.19 1030.19 1030.31 1030.18 1030.01 1030.18 1030.25 1030.02 1029.83 1028.07 1025.86 1025.72 1025.49 1024.85 1024.26 1023.71 1023.34 1022.35 1021.84 1021.67 1020.37
1029.71 1029.81 1029.89 1029.84 1029.70 1029.35 1029.28 1029.45 1029.40 1029.58 1029.83 1030.00 1030.26 1030.07 1029.49 1028.39 1026.64 1025.32 1025.52 1024.99 1024.32 1023.34 1023.24 1022.65 1021.86 1021.17 1020.34
1029.25 1029.19 1029.26 1029.18 1029.11 1029.30 1028.94 1028.84 1029.05 1029.02 1028.85 1029.26 1029.80 1029.62 1029.38 1029.05 1027.86 1025.86 1025.26 1023.91 1023.87 1023.59 1023.45 1022.71 1021.53 1020.54 1019.75
1028.53 1028.61 1028.68 1028.72 1028.53 1028.59 1028.78 1028.53 1028.44 1028.58 1028.41 1028.45 1028.60 1029.14 1029.12 1028.64 1027.94 1026.45 1025.99 1025.48 1023.55 1023.19 1022.79 1022.22 1020.73 1020.27 1019.68
1028.05 1028.10 1028.01 1028.11 1028.20 1028.08 1027.84 1027.91 1028.26 1028.33 1028.42 1028.26 1028.21 1028.40 1028.62 1028.38 1027.18 1026.18 1025.11 1024.58 1023.58 1022.91 1023.07 1021.73 1021.00 1020.16 1019.64
1027.59 1027.48 1027.56 1027.66 1027.48 1027.48 1027.44 1027.44 1027.60 1027.64 1027.91 1028.07 1028.11 1028.42 1028.15 1027.00 1026.71 1024.98 1024.82 1024.26 1023.23 1023.12 1023.24 1021.67 1019.96 1020.01 1019.25
1027.18 1027.12 1027.27 1027.39 1027.20 1027.21 1027.08 1027.10 1027.11 1027.08 1027.24 1027.74 1028.07 1028.55 1027.98 1026.47 1025.53 1024.99 1024.45 1023.71 1023.46 1022.92 1022.51 1021.70 1020.24 1019.05 1018.64
Wind_Speed
2 3 3 5 5 5 5 5 6 16 15 14 18 23 21 21 20 20 21 21 22 24 24 24 23 22 23
2 2 2 3 4 4 5 5 7 12 13 15 21 20 20 20 20 20 20 21 23 24 24 24 25 24 22
3 2 2 2 3 3 4 4 6 12 10 18 18 21 21 20 21 20 22 24 24 24 24 24 24 24 22
2 2 2 3 2 5 7 6 7 3 8 13 13 16 20 20 19 19 23 23 22 23 24 23 23 26 25
2 2 2 3 4 4 3 6 5 2 8 5 4 3 5 13 16 22 22 19 21 23 25 24 23 24 25
2 2 3 2 2 3 4 5 6 3 10 11 3 4 3 4 20 19 16 20 22 25 26 25 25 25 25
4 3 2 2 3 3 2 2 3 8 6 5 3 4 4 8 20 14 15 20 26 25 25 28 29 28 25
5 5 5 5 3 3 4 4 4 4 2 4 4 7 8 6 15 10 18 25 26 25 28 31 28 27 26
13 12 11 10 8 3 3 4 5 2 2 1 4 8 7 4 4 14 25 20 25 21 30 30 28 29 16
5 4 5 6 11 5 3 3 2 3 2 5 3 4 8 3 4 8 5 15 22 27 26 28 28 12 12
4 3 4 4 4 4 5 4 3 4 4 2 1 2 3 8 7 7 6 9 11 10 21 23 25 29 13
3 4 5 6 6 6 6 6 5 6 4 4 3 3 3 9 10 7 11 10 8 10 9 15 24 25 25
6 6 6 5 6 4 5 5 5 4 5 4 3 3 2 4 11 13 13 9 9 6 12 11 11 10 12
7 6 3 2 5 4 4 3 4 4 6 6 5 4 3 4 8 15 11 9 11 10 11 12 9 9 12
7 7 7 6 7 4 5 4 5 4 3 2 3 4 4 5 11 11 12 11 9 10 13 12 9 9 11
7 7 7 7 7 5 5 4 6 7 4 2 1 3 3 8 17 12 8 7 8 8 12 13 12 9 10
5 4 3 4 8 5 4 5 8 7 4 3 3 3 8 13 5 16 11 4 10 11 10 10 14 12 12
Wind_Direction
275 309 311 332 332 335 337 351 344 352 356 358 359 352 353 352 352 350 350 349 345 341 339 339 332 320 313
269 287 274 324 318 336 343 352 331 341 358 10 351 352 349 351 351 349 348 348 345 341 338 337 337 331 320
302 308 295 342 328 318 331 337 328 340 12 352 352 349 346 346 348 349 347 345 344 349 348 346 338 335 328
284 287 295 311 330 346 351 352 330 341 357 342 336 341 340 344 337 341 344 340 341 351 348 346 343 338 332
311 314 309 337 9 335 323 326 319 28 342 327 317 300 311 333 333 340 341 346 358 350 345 343 345 343 333
227 264 270 284 332 342 337 353 337 344 341 318 298 322 299 308 328 338 349 359 352 345 343 340 339 338 337
242 227 275 258 299 323 296 240 258 308 325 292 327 319 325 323 324 335 1 354 348 342 341 339 334 332 329
237 235 227 264 249 252 280 278 283 282 333 286 326 321 321 315 320 343 348 348 347 333 336 332 330 328 324
273 244 259 278 289 316 308 320 316 283 340 283 332 324 318 314 315 345 342 332 333 328 330 322 327 324 317
292 307 309 299 295 284 269 266 245 334 273 350 345 7 320 293 326 317 312 330 332 324 319 318 325 325 322
241 245 251 255 251 249 245 222 198 223 268 86 241 308 222 305 304 313 328 327 315 308 312 317 322 322 306
235 246 249 252 252 239 233 231 222 235 235 215 244 203 258 295 297 320 316 313 305 314 313 320 315 311 312
251 259 254 247 243 255 245 242 253 244 257 227 217 256 225 265 293 305 316 312 305 306 312 302 298 298 304
262 264 257 230 239 227 232 220 247 247 222 224 221 185 268 248 288 294 295 289 309 305 301 297 297 315 299
265 267 260 256 260 224 236 240 241 253 250 246 239 230 241 260 291 277 287 290 295 313 303 302 302 298 298
246 247 257 259 259 251 242 222 246 256 247 221 210 324 284 265 259 274 279 291 307 304 301 299 304 302 291
248 246 237 241 274 273 253 254 268 263 233 192 177 157 293 289 267 272 280 296 308 292 295 295 293 298 300